Location: Carthage
(33.8834°N, 106.6595°W)
Time: 13:31:49
(UTC+00:00)

Cosmos 2123 Rocket - Pass Details

Date: 13 February 2026
Orbit: 960 x 992 km, 82.9° (Epoch: 11 March)

Event Time Altitude Azimuth Distance (km) Brightness Sun altitude
Rises 11:58:05 0° 353° (N) 3,670 6.9 -24.4°
Reaches altitude 10° 12:00:37 10° 352° (N) 2,715 6.2 -23.9°
Maximum altitude 12:06:50 84° 265° (W) 973 3.8 -22.6°
Drops below altitude 10° 12:12:59 10° 178° (S) 2,685 6.3 -21.3°
Sets 12:15:27 0° 178° (S) 3,626 7.1 -20.8°
